#timestamp,LO_Frequency,Hit,StdDev 
1503637215.5,286046998.9,P,0.0
1503637235.3,286046999.4,P,0.2
1503637255.2,286046997.4,P,0.8
1503637275.9,286046995.0,Y,0.0
1503637295.7,286046996.7,P,1.0
1503637315.6,286046996.8,P,0.9
1503637335.4,286046997.1,P,0.8
1503637355.2,286046997.7,N,0.7
1503637375.1,286046997.9,N,0.7
1503637376.0,286046997.9,Y,0.0
1503637395.8,286046999.3,P,0.9
1503637415.7,286046999.5,N,0.9
1503637435.5,286046999.1,N,0.8
1503637455.4,286046996.6,Y,0.0
1503637475.2,286046998.4,P,0.2
1503637495.0,286047001.2,P,1.2
1503637495.9,286047001.2,N,1.3
1503637515.8,286046998.3,N,1.3
1503637535.6,286046999.0,N,1.2
1503637555.5,286046999.0,N,1.2
1503637575.3,286046999.4,N,1.1
1503637595.1,286046999.6,N,1.0
1503637615.9,286046997.0,N,1.2
1503637635.7,286046997.0,N,1.3
1503637655.6,286046999.5,N,1.3
1503637675.4,286046999.2,N,1.2
1503637695.2,286047001.1,N,1.3
1503637715.1,286046998.6,N,1.3
1503637716.0,286046998.6,N,1.2
1503637735.8,286047001.2,N,1.3
1503637755.6,286046998.7,N,1.3
1503637775.5,286046998.7,N,1.2
1503637795.3,286046999.1,N,1.2
1503637815.2,286046999.2,N,1.2
1503637835.9,286046999.3,N,1.1
1503637855.7,286046997.2,N,1.2
1503637875.6,286046996.8,N,1.2
1503637895.4,286046997.9,N,1.2
1503637915.3,286046995.6,Y,0.0
1503637935.1,286046998.7,P,0.1
1503637936.0,286046998.7,P,0.1
1503637955.8,286046998.8,P,0.1
1503637975.7,286046999.0,Y,0.0
1503637995.5,286047000.8,P,1.0
1503638015.4,286046998.5,N,1.0
1503638035.2,286046998.5,N,1.0
1503638055.0,286047000.9,N,1.1
1503638055.9,286047000.9,N,1.1
1503638075.8,286047000.9,N,1.1
1503638095.6,286047001.1,N,1.1
1503638115.4,286047000.7,N,1.1
1503638135.3,286047001.0,N,1.1
1503638155.1,286046998.8,N,1.1
1503638175.9,286046998.5,N,1.1
1503638195.7,286046999.6,N,1.1
1503638215.5,286046999.5,N,1.1
1503638235.4,286046999.1,N,1.0
1503638255.2,286046999.2,N,1.0
1503638275.0,286046997.3,N,1.2
1503638276.0,286046997.3,N,1.2
1503638295.8,286046997.0,N,1.3
1503638315.6,286046997.2,N,1.4
1503638335.5,286042031.3,Y,0.0
1503638355.3,286046996.6,P,1.3
1503638375.1,286046996.9,N,1.2
1503638395.9,286046996.8,N,1.1
1503638415.7,286046996.7,Y,0.0
1503638435.6,286046999.9,P,1.3
1503638455.4,286047002.6,N,2.1
1503638475.2,286047002.6,N,2.2
1503638495.1,286047001.6,N,2.0
1503638496.0,286047001.6,N,1.8
1503638515.8,286047001.8,N,1.7
1503638535.7,286047002.6,N,1.7
1503638555.5,286047002.2,N,1.6
1503638575.3,286047003.9,N,1.7
1503638595.2,286047004.3,N,1.8
1503638615.0,286047003.7,N,1.8
1503638615.9,286047003.7,N,1.8
1503638635.8,286047003.2,N,1.7
1503638655.6,286047003.5,N,1.7
1503638675.4,286047003.2,N,1.7
1503638695.3,286047005.9,Y,0.0
1503638715.1,286047001.8,P,0.3
1503638735.9,286047001.4,P,0.4
1503638755.7,286047001.9,P,0.3
1503638775.5,286047001.5,Y,0.0
1503638795.4,286047000.5,P,0.7
1503638815.2,286047002.6,P,0.9
1503638835.0,286047002.3,N,0.8
1503638835.9,286047002.3,N,0.7
1503638855.8,286047002.1,N,0.7
1503638875.6,286047002.4,Y,0.0
1503638895.5,286047000.7,P,0.6
1503638915.3,286047001.1,N,0.5
1503638935.1,286047000.7,N,0.5
1503638955.9,286047000.9,N,0.5
1503638975.7,286047000.4,N,0.5
1503638995.6,286047000.0,N,0.6
1503639015.4,286047000.0,N,0.6
1503639035.2,286047000.3,N,0.6
1503639055.1,286047000.5,N,0.5
1503639056.0,286047000.5,N,0.5
1503639075.8,286047000.0,N,0.5
1503639095.7,286047000.2,N,0.5
1503639115.5,286047000.2,N,0.5
1503639135.3,286047000.1,N,0.5
1503639155.2,286047000.4,N,0.5
1503639175.0,286047000.1,N,0.5
1503639175.9,286047000.1,N,0.5
1503639195.7,286047002.4,Y,0.0
1503639215.6,286046999.7,P,0.4
1503639235.4,286047002.2,P,1.0
1503639255.3,286047000.3,N,0.9
1503639275.1,286046999.7,N,0.9
1503639276.0,286046999.7,N,0.9
1503639295.2,286047002.3,N,1.1
1503639315.1,286047001.9,N,1.1
1503639316.0,286047001.9,N,1.1
1503639335.8,286047002.1,N,1.1
1503639355.6,286047001.6,N,1.0
1503639375.5,286046999.8,N,1.1
1503639395.3,286047001.6,N,1.0
1503639415.2,286047001.9,N,1.0
1503639435.9,286047002.5,N,1.1
1503639455.7,286047002.7,N,1.1
1503639475.6,286047001.8,N,1.1
1503639495.4,286047001.5,N,1.0
1503639515.3,286047003.9,Y,0.0
1503639535.1,286047000.2,P,0.6
1503639536.0,286047000.2,N,0.5
1503639555.8,286047002.8,P,1.1
1503639576.0,286047002.8,N,1.2
1503639595.9,286046999.7,N,1.3
1503639615.7,286046999.9,N,1.2
1503639635.5,286046999.8,N,1.2
1503639655.4,286047000.1,N,1.2
1503639675.2,286047000.2,N,1.1
1503639695.0,286047002.5,N,1.2
1503639695.9,286047002.5,N,1.2
1503639715.8,286047002.6,N,1.3
1503639735.6,286047001.4,N,1.2
1503639755.5,286047002.1,N,1.2
1503639775.3,286047002.5,N,1.2
1503639795.1,286046999.7,N,1.2
1503639815.9,286047000.9,N,1.2
1503639835.7,286047002.6,N,1.2
1503639855.5,286047001.9,N,1.2
1503639875.4,286047001.4,N,1.2
1503639895.2,286047001.7,N,1.1
1503639915.1,286047002.4,N,1.1
1503639916.0,286047002.4,N,1.1
1503639935.8,286047002.4,N,1.1
1503639955.6,286047001.4,N,1.1
1503639975.5,286047004.4,Y,0.0
1503639995.3,286046999.9,P,0.8
1503640015.2,286046999.9,N,0.7
1503640035.9,286047000.3,N,0.6
1503640055.7,286047000.1,N,0.6
1503640075.6,286047000.0,N,0.5
1503640095.4,286047000.2,N,0.5
1503640115.3,286047000.1,N,0.5
1503640135.1,286047002.7,Y,0.0
1503640136.0,286047002.7,P,1.2
1503640155.8,286047000.9,N,1.0
1503640175.7,286047002.7,N,1.1
1503640195.5,286046999.7,N,1.2
1503640215.3,286047002.3,N,1.2
1503640235.2,286047002.5,N,1.2
1503640255.0,286047001.6,N,1.1
1503640255.9,286047001.6,N,1.0
1503640275.8,286047001.6,N,1.0
1503640295.6,286047002.3,N,1.0
1503640315.4,286047002.4,N,0.9
1503640335.3,286046999.9,N,1.0
1503640355.1,286047002.6,N,1.0
1503640375.9,286047002.7,N,1.0
1503640395.7,286047002.2,N,1.0
1503640415.5,286047002.2,N,1.0
1503640435.4,286047002.3,N,1.0
1503640455.2,286047001.4,N,0.9
1503640475.1,286047001.9,N,0.9
1503640476.0,286047001.9,N,0.9
1503640495.8,286047001.9,N,0.9
1503640515.6,286047001.4,N,0.9
1503640535.5,286047004.0,Y,0.0
1503640555.3,286047000.3,P,0.7
1503640575.2,286046999.9,N,0.8
1503640595.9,286047002.8,P,1.2
1503640615.7,286046999.8,N,1.2
1503640635.6,286047002.7,N,1.3
1503640655.4,286047002.7,N,1.3
1503640675.2,286047002.3,N,1.2
1503640695.1,286047002.5,N,1.2
1503640696.0,286047002.5,N,1.2
1503640715.8,286047002.3,N,1.1
1503640735.7,286047002.4,N,1.1
1503640755.5,286047001.9,N,1.0
1503640775.3,286047002.3,N,1.0
1503640795.2,286047002.5,N,1.0
